TimeCST,TemperatureF,Dew PointF,Humidity,Sea Level PressureIn,VisibilityMPH,Wind Direction,Wind SpeedMPH,Gust SpeedMPH,PrecipitationIn,Events,Conditions,WindDirDegrees,DateUTC
12:15 AM,39.2,37.4,93,29.88,4.0,North,3.5,-,N/A,,Overcast,350,2012-12-09 06:15:00
12:35 AM,39.2,37.4,93,29.87,3.0,Calm,Calm,-,N/A,,Overcast,0,2012-12-09 06:35:00
12:55 AM,39.2,37.4,93,29.86,3.0,Calm,Calm,-,N/A,,Overcast,0,2012-12-09 06:55:00
1:15 AM,39.2,37.4,93,29.85,3.0,ENE,3.5,-,N/A,,Overcast,70,2012-12-09 07:15:00
1:35 AM,39.2,37.4,93,29.85,3.0,Calm,Calm,-,N/A,,Overcast,0,2012-12-09 07:35:00
1:55 AM,39.2,37.4,93,29.85,2.5,Calm,Calm,-,N/A,,Overcast,0,2012-12-09 07:55:00
2:15 AM,41.0,37.4,87,29.84,2.0,Calm,Calm,-,N/A,,Overcast,0,2012-12-09 08:15:00
2:35 AM,39.2,37.4,93,29.84,1.5,NNW,3.5,-,N/A,,Overcast,340,2012-12-09 08:35:00
2:55 AM,39.2,37.4,93,29.83,1.5,Calm,Calm,-,N/A,,Overcast,0,2012-12-09 08:55:00
3:15 AM,41.0,37.4,87,29.83,1.2,Calm,Calm,-,N/A,,Overcast,0,2012-12-09 09:15:00
3:35 AM,41.0,37.4,87,29.83,1.0,North,3.5,-,N/A,,Overcast,350,2012-12-09 09:35:00
3:55 AM,41.0,37.4,87,29.82,0.8,Calm,Calm,-,N/A,,Overcast,0,2012-12-09 09:55:00
4:15 AM,41.0,37.4,87,29.82,0.8,NNW,3.5,-,N/A,,Overcast,340,2012-12-09 10:15:00
4:35 AM,41.0,37.4,87,29.82,0.8,Calm,Calm,-,N/A,,Overcast,0,2012-12-09 10:35:00
4:55 AM,41.0,39.2,93,29.83,0.8,Calm,Calm,-,N/A,,Overcast,0,2012-12-09 10:55:00
5:15 AM,41.0,39.2,93,29.83,0.8,Calm,Calm,-,N/A,,Overcast,0,2012-12-09 11:15:00
5:35 AM,41.0,39.2,93,29.83,0.5,Calm,Calm,-,N/A,Fog,Fog,0,2012-12-09 11:35:00
5:55 AM,41.0,39.2,93,29.84,0.5,Calm,Calm,-,N/A,Fog,Fog,0,2012-12-09 11:55:00
6:15 AM,41.0,39.2,93,29.85,0.5,Calm,Calm,-,N/A,Fog,Fog,0,2012-12-09 12:15:00
6:35 AM,41.0,39.2,93,29.83,0.5,NNW,4.6,-,N/A,Fog,Fog,340,2012-12-09 12:35:00
6:55 AM,41.0,39.2,93,29.84,0.5,NNW,5.8,-,N/A,Fog,Fog,330,2012-12-09 12:55:00
7:15 AM,41.0,39.2,93,29.86,0.5,NW,3.5,-,N/A,Fog,Fog,310,2012-12-09 13:15:00
7:35 AM,41.0,37.4,87,29.86,0.2,NW,4.6,-,N/A,Fog,Fog,310,2012-12-09 13:35:00
7:55 AM,41.0,37.4,87,29.86,0.5,WNW,8.1,-,N/A,Fog,Fog,300,2012-12-09 13:55:00
8:15 AM,41.0,37.4,87,29.85,0.5,NW,9.2,-,N/A,Fog,Fog,310,2012-12-09 14:15:00
8:35 AM,41.0,37.4,87,29.86,2.5,NW,8.1,-,N/A,,Overcast,310,2012-12-09 14:35:00
8:55 AM,41.0,37.4,87,29.86,1.5,WNW,6.9,-,N/A,,Overcast,300,2012-12-09 14:55:00
9:15 AM,41.0,39.2,93,29.88,4.0,WNW,6.9,-,N/A,,Overcast,290,2012-12-09 15:15:00
9:55 AM,41.0,39.2,93,29.90,5.0,WNW,5.8,-,N/A,,Overcast,300,2012-12-09 15:55:00
10:15 AM,41.0,39.2,93,29.89,7.0,WNW,10.4,-,N/A,,Overcast,300,2012-12-09 16:15:00
10:35 AM,41.0,39.2,93,29.90,10.0,WNW,6.9,-,N/A,,Overcast,300,2012-12-09 16:35:00
10:55 AM,41.0,39.2,93,29.89,10.0,WNW,6.9,-,N/A,,Overcast,300,2012-12-09 16:55:00
11:35 AM,42.8,37.4,81,29.89,10.0,WNW,8.1,-,N/A,,Overcast,290,2012-12-09 17:35:00
11:55 AM,42.8,39.2,87,29.87,10.0,WNW,8.1,-,N/A,,Overcast,300,2012-12-09 17:55:00
12:15 PM,42.8,37.4,81,29.86,10.0,NW,8.1,-,N/A,,Overcast,310,2012-12-09 18:15:00
12:35 PM,42.8,37.4,81,29.87,10.0,West,9.2,-,N/A,,Overcast,280,2012-12-09 18:35:00
12:55 PM,42.8,37.4,81,29.88,10.0,WNW,9.2,-,N/A,,Overcast,290,2012-12-09 18:55:00
1:15 PM,42.8,37.4,81,29.88,10.0,WNW,11.5,-,N/A,,Overcast,300,2012-12-09 19:15:00
1:55 PM,42.8,35.6,76,29.89,10.0,WNW,12.7,-,N/A,,Overcast,300,2012-12-09 19:55:00
2:15 PM,42.8,35.6,76,29.88,10.0,WNW,10.4,-,N/A,,Overcast,300,2012-12-09 20:15:00
2:35 PM,42.8,35.6,76,29.89,10.0,WNW,9.2,17.3,N/A,,Overcast,290,2012-12-09 20:35:00
2:55 PM,41.0,33.8,76,29.90,10.0,WNW,13.8,19.6,N/A,,Overcast,300,2012-12-09 20:55:00
3:15 PM,41.0,32.0,70,29.90,10.0,WNW,12.7,16.1,N/A,,Scattered Clouds,290,2012-12-09 21:15:00
3:35 PM,41.0,32.0,70,29.90,10.0,WNW,10.4,-,N/A,,Clear,290,2012-12-09 21:35:00
3:55 PM,41.0,32.0,70,29.91,10.0,WNW,11.5,16.1,N/A,,Clear,300,2012-12-09 21:55:00
4:15 PM,41.0,30.2,65,29.92,10.0,WNW,11.5,16.1,N/A,,Clear,300,2012-12-09 22:15:00
4:35 PM,39.2,30.2,70,29.93,10.0,WNW,12.7,-,N/A,,Clear,300,2012-12-09 22:35:00
4:55 PM,37.4,30.2,75,29.94,10.0,WNW,12.7,19.6,N/A,,Mostly Cloudy,300,2012-12-09 22:55:00
5:15 PM,35.6,28.4,75,29.95,10.0,WNW,13.8,18.4,N/A,,Scattered Clouds,300,2012-12-09 23:15:00
5:35 PM,33.8,24.8,70,29.96,10.0,WNW,13.8,19.6,N/A,,Clear,300,2012-12-09 23:35:00
5:55 PM,33.8,23.0,65,29.97,10.0,WNW,12.7,-,N/A,,Clear,300,2012-12-09 23:55:00
6:15 PM,32.0,23.0,69,29.98,10.0,WNW,12.7,20.7,N/A,,Clear,300,2012-12-10 00:15:00
6:35 PM,32.0,21.2,64,29.99,10.0,WNW,11.5,20.7,N/A,,Clear,300,2012-12-10 00:35:00
6:55 PM,30.2,19.4,64,30.00,10.0,WNW,15.0,18.4,N/A,,Clear,290,2012-12-10 00:55:00
7:15 PM,30.2,17.6,60,30.00,10.0,NW,15.0,23.0,N/A,,Clear,310,2012-12-10 01:15:00
7:35 PM,28.4,17.6,64,30.02,10.0,WNW,11.5,19.6,N/A,,Clear,290,2012-12-10 01:35:00
7:55 PM,28.4,17.6,64,30.01,10.0,WNW,16.1,20.7,N/A,,Clear,290,2012-12-10 01:55:00
8:15 PM,28.4,17.6,64,30.02,10.0,WNW,9.2,17.3,N/A,,Clear,300,2012-12-10 02:15:00
8:35 PM,28.4,17.6,64,30.02,10.0,WNW,17.3,23.0,N/A,,Scattered Clouds,290,2012-12-10 02:35:00
8:55 PM,28.4,17.6,64,30.03,10.0,WNW,15.0,25.3,N/A,,Scattered Clouds,300,2012-12-10 02:55:00
9:15 PM,28.4,17.6,64,30.03,10.0,WNW,16.1,23.0,N/A,,Mostly Cloudy,300,2012-12-10 03:15:00
9:35 PM,26.6,17.6,69,30.04,10.0,WNW,11.5,-,N/A,,Scattered Clouds,300,2012-12-10 03:35:00
9:55 PM,26.6,15.8,64,30.04,10.0,WNW,16.1,23.0,N/A,,Scattered Clouds,300,2012-12-10 03:55:00
10:15 PM,26.6,15.8,64,30.03,10.0,WNW,16.1,19.6,N/A,,Clear,300,2012-12-10 04:15:00
10:35 PM,24.8,14.0,64,30.04,10.0,NW,12.7,-,N/A,,Clear,310,2012-12-10 04:35:00
11:15 PM,24.8,14.0,64,30.05,10.0,WNW,12.7,-,N/A,,Mostly Cloudy,300,2012-12-10 05:15:00